sat.trackr.live / text

‹ back to catalog

STARLINK-4722

NORAD 53775 · 2022-111C

PAYLOAD ACTIVE UNKNOWN

§ Identity

Operator
Country
US
Launch date
2022-09-11
Launch site
AFETR
Launch vehicle
Mass (kg)
RCS (m²)

Purposes: comms

External: N2YO · Heavens-Above · Gunter

§ Orbital elements

Epoch: 2026-09-20T02:57:54.096192Z

Period
94.01 min
Inclination
53.1600°
Eccentricity
0.0001248
Mean motion
15.31704515 rev/d
Perigee alt
469.9 km
Apogee alt
471.6 km
Semi-major
6,848.9 km
B*
3.0047e-5
RAAN
108.3939°
Arg perigee
86.4910°
Mean anomaly
273.6234°
Rev number
22,322

§ Raw data

STARLINK-47221 53775U 22111C   26263.12354278  .00000567  00000+0  30047-4 0  99902 53775  53.1600 108.3939 0001248  86.4910 273.6234 15.31704515223220

JSON: /api/v1/satellites/53775 · /tle

For live sub-satellite position, see the globe view (requires WebGL).

§ Visibility from observer

Set your observer location to see the next 7 days of passes ≥ 10°. The values pass through the URL so the page stays shareable.

No JS? Fill the form by hand. The geolocation button needs JavaScript.